 day,  time,  air_temp(C),  RH(%),  ground_temp10cm(C),  ground_temp20cm(C),  ground_temp40cm(C),  precipitation(mm/h),  Solar_Radiation(MJ/m2h),  lack, 
 07/04/01, 01:00,   8.0,  99,   3.3,   2.7,   2.6,   0.0,  1.59, 
 07/04/01, 02:00,   8.1,  99,   3.4,   2.7,   2.6,   0.0,  1.94, 
 07/04/01, 03:00,   7.5,  99,   3.4,   2.8,   2.6,   0.0,  1.92, 
 07/04/01, 04:00,   6.6,  98,   3.4,   2.8,   2.6,   0.0,  1.91, 
 07/04/01, 05:00,   5.7,  94,   3.4,   2.9,   2.6,   0.0,  1.95, 
 07/04/01, 06:00,   5.5,  92,   3.3,   2.9,   2.6,   0.0,  1.89, 
 07/04/01, 07:00,   5.6,  95,   3.2,   2.9,   2.6,   0.0,  1.92, 
 07/04/01, 08:00,   7.8,  73,   3.1,   2.9,   2.6,   0.0,  1.91, 
 07/04/01, 09:00,   9.2,  57,   3.2,   2.9,   2.6,   0.0,  1.94, 
 07/04/01, 10:00,  10.2,  57,   3.4,   2.9,   2.7,   0.0,  1.94, 
 07/04/01, 11:00,  10.9,  69,   4.0,   3.0,   2.7,   0.0,  1.93, 
 07/04/01, 12:00,  11.4,  62,   4.8,   3.0,   2.7,   0.0,  1.95, 
 07/04/01, 13:00,  11.4,  48,   5.4,   3.1,   2.7,   0.0,  1.95, 
 07/04/01, 14:00,  11.3,  61,   5.9,   3.3,   2.7,   0.0,  1.93, 
 07/04/01, 15:00,  11.5,  53,   6.3,   3.4,   2.7,   0.0,  1.96, 
 07/04/01, 16:00,  11.0,  50,   6.6,   3.6,   2.7,   0.0,  1.93, 
 07/04/01, 17:00,   9.6,  58,   6.8,   3.8,   2.7,   0.0,  1.95, 
 07/04/01, 18:00,   8.8,  59,   6.7,   4.0,   2.7,   0.0,  1.93, 
 07/04/01, 19:00,   7.5,  71,   6.6,   4.2,   2.8,   0.0,  1.94, 
 07/04/01, 20:00,   7.8,  72,   6.3,   4.3,   2.8,   0.0,  1.96, 
 07/04/01, 21:00,   6.2,  72,   6.1,   4.4,   2.8,   0.0,  1.94, 
 07/04/01, 22:00,   7.2,  68,   5.9,   4.5,   2.8,   0.0,  1.97, 
 07/04/01, 23:00,   5.4,  91,   5.8,   4.5,   2.9,   0.0,  1.96, 
 07/04/02, 00:00,   5.1,  94,   5.6,   4.5,   2.9,   0.0,  1.98, 
 07/04/02, 01:00,   4.0,  99,   5.5,   4.5,   2.9,   0.0,  1.61, 
 07/04/02, 02:00,   3.4,  99,   5.3,   4.5,   3.0,   0.0,  1.97, 
 07/04/02, 03:00,   3.5,  99,   5.2,   4.5,   3.0,   0.0,  1.96, 
 07/04/02, 04:00,   2.9,  99,   5.1,   4.5,   2.9,   0.0,  2.01, 
 07/04/02, 05:00,   2.7,  99,   4.9,   4.5,   3.1,   0.0,  1.98, 
 07/04/02, 06:00,   2.3,  99,   4.8,   4.5,   3.1,   0.0,  1.96, 
 07/04/02, 07:00,   2.5,  99,   4.7,   4.4,   3.1,   0.0,  1.97, 
 07/04/02, 08:00,   2.9,  99,   4.6,   4.4,   3.2,   0.0,  1.96, 
 07/04/02, 09:00,   3.8,  99,   4.6,   4.4,   3.2,   0.0,  1.96, 
 07/04/02, 10:00,   4.9,  92,   4.7,   4.3,   3.2,   0.0,  1.99, 
 07/04/02, 11:00,   8.5,  50,   5.0,   4.3,   3.3,   0.0,  1.98, 
 07/04/02, 12:00,   8.1,  49,   5.8,   4.3,   3.3,   0.0,  1.96, 
 07/04/02, 13:00,   8.9,  40,   6.8,   4.3,   3.2,   0.0,  1.92, 
 07/04/02, 14:00,   8.3,  37,   7.6,   4.5,   3.3,   0.0,  1.96, 
 07/04/02, 15:00,   8.3,  35,   7.9,   4.6,   3.3,   0.0,  1.92, 
 07/04/02, 16:00,   6.6,  42,   7.9,   4.8,   3.4,   0.0,  1.89, 
 07/04/02, 17:00,   5.9,  53,   7.8,   5.0,   3.4,   0.0,  1.94, 
 07/04/02, 18:00,   5.0,  64,   7.5,   5.2,   3.5,   0.0,  1.94, 
 07/04/02, 19:00,   3.2,  63,   7.2,   5.3,   3.4,   0.0,  1.91, 
 07/04/02, 20:00,   2.5,  60,   6.9,   5.4,   3.4,   0.0,  1.89, 
 07/04/02, 21:00,   1.3,  71,   6.3,   5.4,   3.6,   0.0,  1.90, 
 07/04/02, 22:00,   1.3,  92,   6.0,   5.4,   3.5,   0.0,  1.91, 
 07/04/02, 23:00,   0.6,  88,   5.7,   5.4,   3.6,   0.0,  1.96, 
 07/04/03, 00:00,   0.5,  83,   5.4,   5.3,   3.6,   0.0,  1.96, 
 07/04/03, 01:00,   0.1,  79,   5.2,   5.2,   3.6,   0.0,  1.58, 
 07/04/03, 02:00,  -0.2,  85,   4.9,   5.2,   3.6,   0.0,  1.97, 
 07/04/03, 03:00,  -0.7,  81,   4.7,   5.1,   3.6,   0.0,  1.94, 
 07/04/03, 04:00,  -1.6,  91,   4.5,   5.0,   3.7,   0.0,  1.94, 
 07/04/03, 05:00,  -1.8,  94,   4.3,   4.9,   3.7,   0.0,  1.98, 
 07/04/03, 06:00,  -2.2,  96,   4.0,   4.8,   3.7,   0.0,  1.93, 
 07/04/03, 07:00,  -2.2,  99,   4.0,   4.7,   3.7,   0.0,  1.96, 
 07/04/03, 08:00,  -2.5,  97,   3.8,   4.6,   3.8,   0.0,  1.93, 
 07/04/03, 09:00,  -1.9,  90,   3.7,   4.5,   3.8,   0.0,  1.94, 
 07/04/03, 10:00,  -2.2,  86,   3.6,   4.4,   3.8,   0.0,  1.97, 
 07/04/03, 11:00,  -1.4,  81,   3.6,   4.3,   3.8,   0.0,  1.93, 
 07/04/03, 12:00,   1.1,  64,   3.7,   4.2,   3.8,   0.0,  1.93, 
 07/04/03, 13:00,  -0.2,  57,   3.9,   4.2,   3.8,   0.0,  1.93, 
 07/04/03, 14:00,   1.9,  72,   4.3,   4.1,   3.9,   0.0,  1.92, 
 07/04/03, 15:00,  -0.1,  71,   4.4,   4.1,   3.8,   0.0,  1.93, 
 07/04/03, 16:00,   0.1,  66,   4.4,   4.1,   3.8,   0.0,  1.89, 
 07/04/03, 17:00,  -2.2,  74,   4.4,   4.1,   3.8,   0.0,  1.91, 
 07/04/03, 18:00,  -3.2,  76,   4.1,   4.2,   3.8,   0.0,  1.92, 
 07/04/03, 19:00,  -4.1,  72,   4.0,   4.2,   3.9,   0.0,  1.94, 
 07/04/03, 20:00,  -4.6,  75,   3.7,   4.1,   3.8,   0.0,  1.99, 
 07/04/03, 21:00,  -5.2,  82,   3.5,   4.1,   3.8,   0.0,  1.93, 
 07/04/03, 22:00,  -5.5,  85,   3.1,   4.1,   3.8,   0.0,  1.97, 
 07/04/03, 23:00,  -5.5,  84,   3.0,   4.0,   3.9,   0.0,  1.99, 
 07/04/04, 00:00,  -5.6,  79,   2.7,   3.9,   3.8,   0.0,  1.98, 
 07/04/04, 01:00,  -6.0,  67,   2.5,   3.8,   3.8,   0.0,  1.65, 
 07/04/04, 02:00,  -4.9,  49,   2.4,   3.7,   3.8,   0.0,  2.04, 
 07/04/04, 03:00,  -7.0,  80,   2.1,   3.6,   3.8,   0.0,  2.00, 
 07/04/04, 04:00,  -5.6,  56,   2.0,   3.5,   3.8,   0.0,  2.00, 
 07/04/04, 05:00,  -6.9,  61,   2.0,   3.4,   3.7,   0.0,  2.01, 
 07/04/04, 06:00,  -5.5,  50,   1.9,   3.3,   3.7,   0.0,  2.01, 
 07/04/04, 07:00,  -4.1,  57,   1.8,   3.2,   3.7,   0.0,  1.99, 
 07/04/04, 08:00,  -2.7,  47,   1.6,   3.2,   3.7,   0.0,  1.98, 
 07/04/04, 09:00,  -1.2,  55,   1.6,   3.1,   3.7,   0.0,  2.01, 
 07/04/04, 10:00,  -0.2,  51,   1.6,   3.0,   3.8,   0.0,  1.97, 
 07/04/04, 11:00,  -1.5,  68,   1.5,   2.9,   3.7,   0.0,  1.96, 
 07/04/04, 12:00,  -2.1,  87,   1.4,   2.8,   3.7,   0.0,  1.99, 
 07/04/04, 13:00,  -1.9,  88,   1.4,   2.8,   3.6,   0.0,  1.94, 
 07/04/04, 14:00,  -3.0,  94,   1.4,   2.7,   3.6,   0.0,  1.96, 
 07/04/04, 15:00,  -1.4,  90,   1.3,   2.6,   3.5,   1.0,  1.96, 
 07/04/04, 16:00,  -1.7,  84,   1.3,   2.6,   3.6,   0.5,  1.96, 
 07/04/04, 17:00,  -2.8,  91,   1.3,   2.5,   3.6,   0.0,  1.99, 
 07/04/04, 18:00,  -2.7,  82,   1.3,   2.5,   3.5,   0.0,  1.96, 
 07/04/04, 19:00,  -3.4,  85,   1.3,   2.5,   3.5,   0.0,  1.99, 
 07/04/04, 20:00,  -3.8,  91,   1.3,   2.4,   3.5,   0.0,  1.99, 
 07/04/04, 21:00,  -4.1,  88,   1.3,   2.4,   3.5,   0.0,  1.98, 
 07/04/04, 22:00,  -4.3,  98,   1.3,   2.4,   3.5,   0.0,  1.99, 
 07/04/04, 23:00,  -4.3,  99,   1.3,   2.3,   3.4,   0.0,  1.98, 
 07/04/05, 00:00,  -4.4,  94,   1.3,   2.3,   3.4,   0.0,  1.99, 
 07/04/05, 01:00,  -4.8,  99,   1.2,   2.3,   3.4,   0.0,  1.64, 
 07/04/05, 02:00,  -5.2,  97,   1.2,   2.3,   3.4,   0.0,  2.02, 
 07/04/05, 03:00,  -6.0,  94,   1.2,   2.2,   3.3,   0.0,  2.05, 
 07/04/05, 04:00,  -6.7,  93,   1.1,   2.2,   3.3,   0.0,  2.02, 
 07/04/05, 05:00,  -7.9,  93,   1.1,   2.2,   3.3,   0.0,  2.02, 
 07/04/05, 06:00,  -7.6,  94,   1.1,   2.2,   3.3,   0.0,  2.00, 
 07/04/05, 07:00,  -6.1,  87,   1.0,   2.1,   3.3,   0.0,  2.02, 
 07/04/05, 08:00,  -4.4,  68,   1.0,   2.1,   3.2,   0.0,  2.00, 
 07/04/05, 09:00,  -2.5,  62,   1.0,   2.1,   3.2,   0.0,  2.02, 
 07/04/05, 10:00,  -0.9,  49,   1.0,   2.0,   3.2,   0.0,  2.04, 
 07/04/05, 11:00,   0.7,  48,   1.0,   2.0,   3.2,   0.0,  2.01, 
 07/04/05, 12:00,   1.6,  52,   1.3,   2.0,   3.2,   0.0,  2.00, 
 07/04/05, 13:00,   2.1,  46,   2.1,   2.0,   3.2,   0.0,  1.97, 
 07/04/05, 14:00,   1.8,  52,   3.1,   2.0,   3.1,   0.0,  1.99, 
 07/04/05, 15:00,   1.4,  54,   3.3,   2.1,   3.1,   0.0,  1.97, 
 07/04/05, 16:00,   1.3,  57,   3.4,   2.3,   3.1,   0.0,  1.91, 
 07/04/05, 17:00,  -0.5,  66,   3.4,   2.4,   3.1,   0.0,  1.98, 
 07/04/05, 18:00,  -1.5,  73,   3.1,   2.6,   3.1,   0.0,  1.94, 
 07/04/05, 19:00,  -2.8,  80,   2.9,   2.7,   3.1,   0.0,  1.97, 
 07/04/05, 20:00,  -3.5,  84,   2.6,   2.7,   3.1,   0.0,  1.98, 
 07/04/05, 21:00,  -4.2,  88,   2.4,   2.7,   3.1,   0.0,  1.97, 
 07/04/05, 22:00,  -4.6,  91,   2.2,   2.7,   3.0,   0.0,  2.02, 
 07/04/05, 23:00,  -4.4,  91,   2.0,   2.7,   3.0,   0.0,  1.99, 
 07/04/06, 00:00,  -5.0,  94,   1.9,   2.7,   3.0,   0.0,  2.00, 
 07/04/06, 01:00,  -4.2,  86,   1.7,   2.7,   3.0,   0.0,  1.66, 
 07/04/06, 02:00,  -3.7,  82,   1.6,   2.6,   3.0,   0.0,  2.02, 
 07/04/06, 03:00,  -3.5,  77,   1.5,   2.6,   3.0,   0.0,  1.99, 
 07/04/06, 04:00,  -3.3,  74,   1.4,   2.5,   3.0,   0.0,  1.99, 
 07/04/06, 05:00,  -3.4,  70,   1.3,   2.5,   3.0,   0.0,  1.99, 
 07/04/06, 06:00,  -3.8,  72,   1.2,   2.4,   3.0,   0.0,  1.99, 
 07/04/06, 07:00,  -1.2,  68,   1.2,   2.4,   3.0,   0.0,  2.00, 
 07/04/06, 08:00,  -0.4,  63,   1.1,   2.3,   3.0,   0.0,  1.99, 
 07/04/06, 09:00,   1.8,  55,   1.1,   2.2,   3.0,   0.0,  1.98, 
 07/04/06, 10:00,   3.1,  56,   1.1,   2.2,   3.0,   0.0,  2.04, 
 07/04/06, 11:00,   7.1,  42,   1.1,   2.2,   3.1,   0.0,  1.99, 
 07/04/06, 12:00,   7.0,  34,   1.7,   2.1,   3.1,   0.0,  1.92, 
 07/04/06, 13:00,   8.2,  27,   3.0,   2.1,   2.9,   0.0,  1.83, 
 07/04/06, 14:00,   7.6,  28,   4.1,   2.3,   3.1,   0.0,  1.82, 
 07/04/06, 15:00,   7.7,  29,   4.5,   2.4,   3.0,   0.0,  1.77, 
 07/04/06, 16:00,   6.8,  28,   4.6,   2.6,   3.1,   0.0,  1.75, 
 07/04/06, 17:00,   5.5,  25,   4.6,   2.8,   3.1,   0.0,  1.76, 
 07/04/06, 18:00,   4.1,  33,   4.5,   3.0,   3.1,   0.0,  1.77, 
 07/04/06, 19:00,   1.9,  44,   4.3,   3.1,   2.9,   0.0,  1.83, 
 07/04/06, 20:00,   1.5,  51,   4.0,   3.2,   3.1,   0.0,  1.88, 
 07/04/06, 21:00,   1.3,  57,   3.7,   3.2,   3.1,   0.0,  1.91, 
 07/04/06, 22:00,   0.7,  66,   3.4,   3.3,   3.1,   0.0,  1.94, 
 07/04/06, 23:00,   0.3,  71,   3.2,   3.3,   3.1,   0.0,  1.96, 
 07/04/07, 00:00,   0.0,  77,   2.9,   3.3,   3.1,   0.0,  1.97, 
 07/04/07, 01:00,  -1.4,  82,   2.7,   3.2,   3.1,   0.0,  1.63, 
 07/04/07, 02:00,  -0.8,  75,   2.5,   3.2,   3.0,   0.0,  2.01, 
 07/04/07, 03:00,  -1.0,  78,   2.4,   3.1,   3.0,   0.0,  1.98, 
 07/04/07, 04:00,   0.1,  73,   2.2,   3.1,   3.0,   0.0,  2.03, 
 07/04/07, 05:00,  -0.2,  77,   2.1,   3.0,   3.1,   0.0,  2.04, 
 07/04/07, 06:00,  -0.4,  77,   2.0,   2.9,   3.1,   0.0,  2.01, 
 07/04/07, 07:00,   1.8,  68,   1.9,   2.9,   3.1,   0.0,  2.09, 
 07/04/07, 08:00,   4.1,  52,   1.8,   2.8,   3.1,   0.0,  1.98, 
 07/04/07, 09:00,   4.9,  47,   1.7,   2.7,   3.1,   0.0,  1.96, 
 07/04/07, 10:00,   6.6,  43,   1.7,   2.7,   3.1,   0.0,  1.93, 
 07/04/07, 11:00,   8.8,  40,   2.1,   2.6,   3.1,   0.0,  1.88, 
 07/04/07, 12:00,   9.9,  37,   3.2,   2.6,   3.2,   0.0,  1.89, 
 07/04/07, 13:00,   8.7,  39,   4.2,   2.7,   3.2,   0.0,  1.86, 
 07/04/07, 14:00,   7.3,  50,   5.0,   2.7,   3.1,   0.0,  1.86, 
 07/04/07, 15:00,   5.7,  62,   5.3,   3.0,   3.2,   0.0,  1.86, 
 07/04/07, 16:00,   3.5,  96,   5.4,   3.1,   3.1,   0.0,  1.85, 
 07/04/07, 17:00,   3.5,  96,   5.4,   3.4,   3.2,   0.0,  1.88, 
 07/04/07, 18:00,   2.8,  99,   5.3,   3.5,   3.1,   0.0,  1.90, 
 07/04/07, 19:00,   2.1,  99,   5.2,   3.7,   3.2,   0.0,  1.88, 
 07/04/07, 20:00,   1.7,  99,   5.0,   3.8,   3.2,   0.5,  1.94, 
 07/04/07, 21:00,   1.5,  99,   4.7,   3.8,   3.1,   0.0,  1.91, 
 07/04/07, 22:00,   0.7,  99,   4.5,   3.9,   3.1,   0.0,  1.97, 
 07/04/07, 23:00,   0.3,  99,   4.2,   3.9,   3.1,   0.0,  1.96, 
 07/04/08, 00:00,   0.8,  99,   4.1,   4.0,   3.3,   0.0,  1.95, 
 07/04/08, 01:00,   0.0,  99,   3.9,   4.0,   3.3,   0.0,  1.62, 
 07/04/08, 02:00,  -0.5,  99,   3.6,   3.9,   3.3,   0.0,  1.99, 
 07/04/08, 03:00,  -1.2,  97,   3.4,   3.9,   3.3,   0.0,  1.98, 
 07/04/08, 04:00,  -1.0,  97,   3.2,   3.8,   3.3,   0.0,  2.02, 
 07/04/08, 05:00,   0.0,  72,   3.0,   3.7,   3.3,   0.0,  2.00, 
 07/04/08, 06:00,  -1.6,  86,   2.8,   3.6,   3.3,   0.0,  2.02, 
 07/04/08, 07:00,   1.8,  69,   2.7,   3.5,   3.3,   0.0,  2.02, 
 07/04/08, 08:00,   2.5,  68,   2.5,   3.5,   3.4,   0.0,  2.01, 
 07/04/08, 09:00,   4.2,  61,   2.4,   3.4,   3.3,   0.0,  2.02, 
 07/04/08, 10:00,   5.4,  70,   2.4,   3.3,   3.4,   0.0,  1.99, 
 07/04/08, 11:00,   6.6,  47,   2.9,   3.2,   3.4,   0.0,  1.92, 
 07/04/08, 12:00,   7.2,  44,   4.0,   3.3,   3.4,   0.0,  1.91, 
 07/04/08, 13:00,   8.0,  46,   5.2,   3.2,   3.4,   0.0,  1.88, 
 07/04/08, 14:00,   8.5,  45,   6.1,   3.4,   3.4,   0.0,  1.87, 
 07/04/08, 15:00,   8.3,  45,   6.5,   3.6,   3.4,   0.0,  1.88, 
 07/04/08, 16:00,   7.2,  46,   6.6,   3.9,   3.5,   0.0,  1.83, 
 07/04/08, 17:00,   6.1,  54,   6.7,   4.1,   3.5,   0.0,  1.86, 
 07/04/08, 18:00,   5.1,  63,   6.5,   4.2,   3.5,   0.0,  1.87, 
 07/04/08, 19:00,   4.4,  65,   6.3,   4.4,   3.5,   0.0,  1.86, 
 07/04/08, 20:00,   2.5,  79,   6.1,   4.6,   3.5,   0.0,  1.91, 
 07/04/08, 21:00,   2.2,  80,   5.8,   4.6,   3.5,   0.0,  1.92, 
 07/04/08, 22:00,   2.5,  82,   5.5,   4.6,   3.5,   0.0,  1.96, 
 07/04/08, 23:00,   1.4,  99,   5.3,   4.6,   3.5,   0.0,  1.95, 
 07/04/09, 00:00,   1.0,  99,   5.1,   4.6,   3.5,   0.0,  1.93, 
 07/04/09, 01:00,   0.0,  99,   4.9,   4.6,   3.6,   0.0,  1.58, 
 07/04/09, 02:00,   0.0,  96,   4.6,   4.6,   3.6,   0.0,  1.98, 
 07/04/09, 03:00,   0.7,  94,   4.4,   4.5,   3.5,   0.0,  1.97, 
 07/04/09, 04:00,   1.1,  87,   4.2,   4.5,   3.5,   0.0,  2.03, 
 07/04/09, 05:00,   0.4,  95,   4.0,   4.4,   3.6,   0.0,  2.03, 
 07/04/09, 06:00,   0.1,  98,   3.9,   4.4,   3.6,   0.0,  2.00, 
 07/04/09, 07:00,   0.4,  98,   3.8,   4.3,   3.6,   0.0,  2.00, 
 07/04/09, 08:00,   0.4,  98,   3.7,   4.2,   3.7,   0.5,  1.99, 
 07/04/09, 09:00,   2.0,  88,   3.6,   4.2,   3.7,   0.0,  2.03, 
 07/04/09, 10:00,   4.1,  74,   3.6,   4.1,   3.8,   0.0,  1.99, 
 07/04/09, 11:00,   4.9,  66,   4.0,   4.1,   3.8,   0.0,  1.96, 
 07/04/09, 12:00,   4.9,  57,   4.7,   4.1,   3.8,   0.0,  1.95, 
 07/04/09, 13:00,   5.9,  53,   5.3,   4.1,   3.8,   0.0,  1.91, 
 07/04/09, 14:00,   6.7,  48,   5.8,   4.1,   3.6,   0.0,  1.91, 
 07/04/09, 15:00,   5.6,  57,   6.0,   4.2,   3.8,   0.0,  1.92, 
 07/04/09, 16:00,   5.0,  64,   6.0,   4.3,   3.8,   0.0,  1.87, 
 07/04/09, 17:00,   3.3,  65,   6.0,   4.4,   3.8,   0.0,  1.91, 
 07/04/09, 18:00,   2.1,  75,   5.8,   4.6,   3.8,   0.0,  1.91, 
 07/04/09, 19:00,   1.0,  79,   5.6,   4.6,   3.8,   0.0,  1.94, 
 07/04/09, 20:00,   0.1,  84,   5.3,   4.7,   3.8,   0.0,  1.95, 
 07/04/09, 21:00,  -0.2,  87,   4.9,   4.7,   3.8,   0.0,  1.96, 
 07/04/09, 22:00,  -0.1,  78,   4.6,   4.7,   3.9,   0.0,  2.00, 
 07/04/09, 23:00,  -1.8,  88,   4.3,   4.6,   3.9,   0.0,  2.04, 
 07/04/10, 00:00,  -0.9,  75,   4.0,   4.6,   3.9,   0.0,  2.01, 
 07/04/10, 01:00,  -0.9,  61,   3.7,   4.5,   3.9,   0.0,  1.66, 
 07/04/10, 02:00,   0.5,  42,   3.5,   4.4,   3.9,   0.0,  2.04, 
 07/04/10, 03:00,  -1.8,  52,   3.3,   4.3,   3.9,   0.0,  2.07, 
 07/04/10, 04:00,   0.5,  30,   3.1,   4.2,   3.9,   0.0,  2.06, 
 07/04/10, 05:00,   1.9,  25,   2.9,   4.1,   3.9,   0.0,  2.04, 
 07/04/10, 06:00,   1.6,  29,   2.7,   4.0,   3.9,   0.0,  2.04, 
 07/04/10, 07:00,   1.4,  42,   2.5,   4.0,   3.9,   0.0,  2.08, 
 07/04/10, 08:00,   5.1,  37,   2.4,   3.8,   4.0,   0.0,  2.04, 
 07/04/10, 09:00,   5.9,  35,   2.3,   3.7,   4.0,   0.0,  2.03, 
 07/04/10, 10:00,   7.8,  39,   2.3,   3.7,   4.0,   0.0,  1.99, 
 07/04/10, 11:00,   7.6,  31,   2.8,   3.6,   4.0,   0.0,  1.98, 
 07/04/10, 12:00,   8.6,  32,   3.9,   3.6,   4.0,   0.0,  1.94, 
 07/04/10, 13:00,   9.0,  31,   5.2,   3.6,   4.0,   0.0,  1.91, 
 07/04/10, 14:00,   8.8,  29,   6.1,   3.7,   4.0,   0.0,  1.91, 
 07/04/10, 15:00,   8.8,  24,   6.4,   3.9,   4.0,   0.0,  1.89, 
 07/04/10, 16:00,   8.4,  27,   6.4,   4.1,   3.9,   0.0,  1.88, 
 07/04/10, 17:00,   7.7,  28,   6.4,   4.2,   3.8,   0.0,  1.89, 
 07/04/10, 18:00,   6.2,  38,   6.3,   4.5,   3.8,   0.0,  1.85, 
 07/04/10, 19:00,   4.9,  41,   6.0,   4.6,   3.9,   0.0,  1.90, 
 07/04/10, 20:00,   4.5,  37,   5.8,   4.7,   3.9,   0.0,  1.92, 
 07/04/10, 21:00,   3.4,  38,   5.5,   4.7,   3.8,   0.0,  1.92, 
 07/04/10, 22:00,   2.1,  40,   5.2,   4.8,   3.8,   0.0,  1.97, 
 07/04/10, 23:00,   3.2,  29,   4.9,   4.9,   4.0,   0.0,  1.94, 
 07/04/11, 00:00,   2.7,  38,   4.6,   4.7,   4.0,   0.0,  1.98, 
 07/04/11, 01:00,   2.9,  38,   4.3,   4.7,   4.0,   0.0,  1.61, 
 07/04/11, 02:00,   2.4,  44,   4.1,   4.6,   4.0,   0.0,  2.01, 
 07/04/11, 03:00,   2.1,  48,   3.9,   4.6,   4.0,   0.0,  1.99, 
 07/04/11, 04:00,   1.7,  57,   3.7,   4.5,   4.0,   0.0,  2.00, 
 07/04/11, 05:00,   1.7,  62,   3.5,   4.4,   4.1,   0.0,  2.03, 
 07/04/11, 06:00,   1.0,  70,   3.4,   4.3,   4.1,   0.0,  2.00, 
 07/04/11, 07:00,   3.4,  62,   3.2,   4.2,   4.1,   0.0,  2.02, 
 07/04/11, 08:00,   3.7,  62,   3.2,   4.2,   4.1,   0.0,  2.01, 
 07/04/11, 09:00,   4.7,  59,   3.3,   4.1,   4.1,   0.0,  2.00, 
 07/04/11, 10:00,   5.6,  57,   3.5,   4.1,   4.1,   0.0,  1.99, 
 07/04/11, 11:00,   6.5,  54,   3.9,   4.1,   4.1,   0.0,  1.94, 
 07/04/11, 12:00,   6.5,  53,   4.4,   4.1,   4.1,   0.0,  1.93, 
 07/04/11, 13:00,   7.3,  49,   4.9,   4.1,   4.1,   0.0,  1.91, 
 07/04/11, 14:00,   7.8,  52,   5.3,   4.1,   4.1,   0.0,  1.91, 
 07/04/11, 15:00,   5.1,  70,   5.7,   4.1,   4.1,   0.0,  1.89, 
 07/04/11, 16:00,   4.6,  73,   5.9,   4.4,   4.1,   0.0,  1.86, 
 07/04/11, 17:00,   4.1,  77,   6.0,   4.5,   4.1,   0.0,  1.90, 
 07/04/11, 18:00,   3.1,  82,   6.0,   4.6,   4.0,   0.0,  1.90, 
 07/04/11, 19:00,   1.6,  90,   5.8,   4.7,   4.1,   0.0,  1.89, 
 07/04/11, 20:00,  -0.2,  95,   5.6,   4.7,   4.1,   0.0,  1.93, 
 07/04/11, 21:00,  -0.8,  98,   5.3,   4.9,   4.1,   0.0,  1.92, 
 07/04/11, 22:00,  -1.1,  98,   5.0,   4.8,   4.1,   0.0,  1.98, 
 07/04/11, 23:00,  -0.7,  96,   4.7,   4.8,   4.1,   0.0,  1.99, 
 07/04/12, 00:00,  -1.2,  94,   4.4,   4.8,   4.1,   0.0,  1.98, 
 07/04/12, 01:00,  -1.3,  90,   4.1,   4.7,   4.1,   0.0,  1.65, 
 07/04/12, 02:00,  -1.2,  83,   3.8,   4.6,   4.1,   0.0,  2.05, 
 07/04/12, 03:00,  -1.7,  83,   3.6,   4.6,   4.1,   0.0,  2.07, 
 07/04/12, 04:00,  -2.4,  84,   3.4,   4.5,   4.2,   0.0,  2.09, 
 07/04/12, 05:00,  -2.4,  79,   3.1,   4.4,   4.1,   0.0,  2.09, 
 07/04/12, 06:00,  -2.1,  66,   3.0,   4.3,   4.1,   0.0,  2.09, 
 07/04/12, 07:00,   0.1,  64,   2.8,   4.2,   4.1,   0.0,  2.12, 
 07/04/12, 08:00,   1.9,  59,   2.7,   4.1,   4.2,   0.0,  2.08, 
 07/04/12, 09:00,   4.1,  55,   2.7,   4.1,   4.2,   0.0,  2.07, 
 07/04/12, 10:00,   6.3,  59,   2.7,   3.9,   4.1,   0.0,  2.02, 
 07/04/12, 11:00,   8.1,  28,   3.3,   3.9,   4.2,   0.0,  2.03, 
 07/04/12, 12:00,   8.8,  19,   4.4,   3.9,   4.2,   0.0,  2.01, 
 07/04/12, 13:00,  10.1,  22,   5.7,   3.9,   4.2,   0.0,  1.98, 
 07/04/12, 14:00,  10.0,  23,   6.5,   4.0,   4.2,   0.0,  1.98, 
 07/04/12, 15:00,  10.7,  28,   6.8,   4.1,   4.2,   0.0,  1.97, 
 07/04/12, 16:00,  10.3,  26,   6.8,   4.4,   4.2,   0.0,  2.01, 
 07/04/12, 17:00,   8.7,  34,   6.8,   4.6,   4.1,   0.0,  2.00, 
 07/04/12, 18:00,   7.4,  51,   6.6,   4.7,   4.2,   0.0,  1.95, 
 07/04/12, 19:00,   6.5,  55,   6.5,   4.9,   4.2,   0.0,  1.98, 
 07/04/12, 20:00,   4.8,  71,   6.2,   5.0,   4.1,   0.0,  1.97, 
 07/04/12, 21:00,   3.2,  89,   6.1,   5.2,   4.2,   0.0,  2.00, 
 07/04/12, 22:00,   2.8,  89,   5.8,   5.1,   4.2,   0.0,  2.02, 
 07/04/12, 23:00,   2.0,  87,   5.6,   5.1,   4.2,   0.0,  1.98, 
 07/04/13, 00:00,   3.7,  73,   5.5,   5.2,   4.2,   0.0,  2.03, 
 07/04/13, 01:00,   4.5,  68,   5.2,   5.1,   4.2,   0.0,  1.65, 
 07/04/13, 02:00,   5.2,  65,   5.1,   5.1,   4.2,   0.0,  2.04, 
 07/04/13, 03:00,   4.1,  70,   5.0,   5.1,   4.2,   0.0,  2.04, 
 07/04/13, 04:00,   4.5,  63,   4.7,   5.0,   4.2,   0.0,  2.06, 
 07/04/13, 05:00,   4.2,  65,   4.7,   5.0,   4.2,   0.0,  2.05, 
 07/04/13, 06:00,   5.1,  55,   4.6,   4.9,   4.3,   0.0,  2.04, 
 07/04/13, 07:00,   6.0,  45,   4.3,   4.9,   4.3,   0.0,  2.07, 
 07/04/13, 08:00,   7.5,  48,   4.3,   4.8,   4.3,   0.0,  2.06, 
 07/04/13, 09:00,   9.4,  60,   4.5,   4.8,   4.3,   0.0,  2.05, 
 07/04/13, 10:00,   9.1,  65,   4.7,   4.7,   4.3,   0.0,  2.01, 
 07/04/13, 11:00,   8.8,  67,   5.2,   4.7,   4.3,   0.0,  2.03, 
 07/04/13, 12:00,   9.5,  67,   5.5,   4.7,   4.4,   0.0,  2.00, 
 07/04/13, 13:00,  10.7,  51,   5.8,   4.7,   4.4,   0.0,  1.96, 
 07/04/13, 14:00,  10.3,  58,   6.2,   4.8,   4.5,   0.0,  1.94, 
 07/04/13, 15:00,  11.1,  57,   6.3,   4.9,   4.5,   0.0,  1.93, 
 07/04/13, 16:00,  10.3,  58,   6.5,   5.1,   4.5,   0.0,  1.93, 
 07/04/13, 17:00,   9.2,  67,   6.6,   5.2,   4.5,   0.0,  1.91, 
 07/04/13, 18:00,   8.4,  71,   6.6,   5.3,   4.5,   0.0,  1.88, 
 07/04/13, 19:00,   7.5,  80,   6.5,   5.3,   4.5,   0.0,  1.93, 
 07/04/13, 20:00,   6.6,  91,   6.4,   5.3,   4.5,   0.0,  1.94, 
 07/04/13, 21:00,   8.3,  74,   6.3,   5.4,   4.5,   0.0,  1.92, 
 07/04/13, 22:00,   6.6,  99,   6.2,   5.4,   4.5,   0.5,  1.98, 
 07/04/13, 23:00,   5.9,  99,   6.1,   5.4,   4.5,   3.0,  1.95, 
 07/04/14, 00:00,   4.6,  99,   6.0,   5.4,   4.5,   9.5,  1.98, 
 07/04/14, 01:00,   5.5,  99,   5.9,   5.5,   4.5,   0.0,  1.61, 
 07/04/14, 02:00,   6.3,  99,   5.7,   5.5,   4.5,   0.0,  1.99, 
 07/04/14, 03:00,   6.3,  99,   5.8,   5.5,   4.5,   0.0,  1.96, 
 07/04/14, 04:00,   5.8,  99,   5.7,   5.4,   4.5,   0.0,  2.01, 
 07/04/14, 05:00,   5.2,  99,   5.7,   5.4,   4.5,   0.5,  1.98, 
 07/04/14, 06:00,   4.7,  99,   5.6,   5.4,   4.7,   0.0,  1.97, 
 07/04/14, 07:00,   4.3,  99,   5.6,   5.4,   4.6,   0.0,  2.01, 
 07/04/14, 08:00,   4.2,  99,   5.5,   5.4,   4.6,   0.0,  1.99, 
 07/04/14, 09:00,   4.0,  95,   5.5,   5.3,   4.6,   0.5,  2.00, 
 07/04/14, 10:00,   4.3,  90,   5.6,   5.3,   4.6,   0.0,  1.98, 
 07/04/14, 11:00,   4.2,  96,   5.6,   5.3,   4.7,   0.0,  1.98, 
 07/04/14, 12:00,   5.8,  81,   5.8,   5.3,   4.7,   0.0,  1.97, 
 07/04/14, 13:00,   6.5,  72,   6.2,   5.3,   4.8,   0.0,  1.95, 
 07/04/14, 14:00,   8.0,  59,   6.5,   5.3,   4.8,   0.0,  1.98, 
 07/04/14, 15:00,   6.6,  55,   6.7,   5.4,   4.8,   0.5,  1.97, 
 07/04/14, 16:00,   7.5,  56,   6.7,   5.5,   4.8,   0.0,  1.93, 
 07/04/14, 17:00,   7.0,  56,   6.7,   5.7,   4.8,   0.0,  1.93, 
 07/04/14, 18:00,   5.2,  60,   6.6,   5.6,   4.7,   0.0,  1.89, 
 07/04/14, 19:00,   3.4,  71,   6.4,   5.7,   4.8,   0.0,  1.97, 
 07/04/14, 20:00,   3.0,  64,   6.1,   5.7,   4.8,   0.0,  1.97, 
 07/04/14, 21:00,   0.9,  87,   5.8,   5.7,   4.8,   0.0,  1.93, 
 07/04/14, 22:00,   1.8,  78,   5.5,   5.7,   4.9,   0.0,  2.00, 
 07/04/14, 23:00,   3.1,  52,   5.2,   5.6,   4.9,   0.0,  1.99, 
 07/04/15, 00:00,   2.4,  47,   5.0,   5.6,   4.8,   0.0,  2.02, 
 07/04/15, 01:00,   2.8,  40,   4.7,   5.5,   4.9,   0.0,  1.65, 
 07/04/15, 02:00,   3.9,  36,   4.5,   5.4,   4.9,   0.0,  2.04, 
 07/04/15, 03:00,   3.8,  37,   4.3,   5.3,   4.8,   0.0,  2.05, 
 07/04/15, 04:00,   3.6,  39,   4.1,   5.2,   4.8,   0.0,  2.08, 
 07/04/15, 05:00,   3.7,  39,   3.9,   5.1,   4.8,   0.0,  2.06, 
 07/04/15, 06:00,   1.8,  47,   3.7,   5.0,   4.9,   0.0,  2.07, 
 07/04/15, 07:00,   4.4,  38,   3.6,   4.9,   5.0,   0.0,  2.06, 
 07/04/15, 08:00,   7.6,  33,   3.4,   4.8,   5.0,   0.0,  2.03, 
 07/04/15, 09:00,   8.5,  32,   3.5,   4.8,   5.0,   0.0,  2.06, 
 07/04/15, 10:00,   9.6,  37,   3.7,   4.6,   5.0,   0.0,  2.00, 
 07/04/15, 11:00,  10.8,  32,   4.4,   4.7,   5.0,   0.0,  1.99, 
 07/04/15, 12:00,  11.7,  28,   5.5,   4.5,   4.9,   0.0,  1.94, 
 07/04/15, 13:00,  13.4,  30,   6.6,   4.6,   4.8,   0.0,  1.91, 
 07/04/15, 14:00,  13.0,  25,   7.4,   4.8,   4.9,   0.0,  1.91, 
 07/04/15, 15:00,  11.7,  22,   7.6,   5.0,   4.9,   0.0,  1.90, 
 07/04/15, 16:00,  11.4,  23,   7.6,   5.3,   4.9,   0.0,  1.87, 
 07/04/15, 17:00,  10.2,  43,   7.5,   5.5,   4.9,   0.0,  1.90, 
 07/04/15, 18:00,   7.8,  62,   7.4,   5.5,   4.9,   0.0,  1.89, 
 07/04/15, 19:00,   6.2,  59,   7.2,   5.7,   4.9,   0.0,  1.92, 
 07/04/15, 20:00,   5.4,  66,   7.0,   5.8,   4.9,   0.0,  1.96, 
 07/04/15, 21:00,   4.5,  70,   6.7,   5.8,   4.9,   0.0,  1.93, 
 07/04/15, 22:00,   4.4,  62,   6.4,   5.9,   4.9,   0.0,  1.99, 
 07/04/15, 23:00,   3.7,  64,   6.2,   5.9,   4.9,   0.0,  1.98, 
 07/04/16, 00:00,   4.2,  60,   5.8,   5.9,   4.8,   0.0,  2.03, 
 07/04/16, 01:00,   2.8,  64,   5.6,   5.8,   5.0,   0.0,  1.64, 